1998-067MU

Last updated on Fri Aug 04 2017 00:15:03 GMT+0000 (Coordinated Universal Time)

1 42820U 98067MU 17215.21654252 .00007783 00000-0 11913-3 0 9992 2 42820 51.6389 163.6954 0004301 65.5603 294.5837 15.55398144 4194
UTC large
Height (km)
Speed (km/s)
/
Latitude / Longitude
Inclination (degrees)
Orbital Period (minutes)
Azimuth
Elevation
Range (km)
Doppler Factor

Next 0 passes for location: London (51.5072 / 0.1276)

Sorry there are no passes over London.